This is the latest recevied weather packets stored in our database for station/object DD6UBW. If no packets are shown the sender has not sent any weather packets the latest 10 day(s).
| Time | Temp. | Humidity | Pressure | Rain* | Wind** | Luminosity | Snow |
|---|---|---|---|---|---|---|---|
| 1788427801 | 20° C | 65% | 1015.6 hPa | 0 mm | - | - | - |
| 1788426001 | 19.44° C | 67% | 1016.6 hPa | 0 mm | - | - | - |
| 1788424201 | 18.33° C | 69% | 1016.6 hPa | 0 mm | - | - | - |
| 1788422402 | 18.33° C | 71% | 1016.6 hPa | 0 mm | - | - | - |
| 1788420601 | 17.78° C | 74% | 1016.6 hPa | 0 mm | - | - | - |
| 1788418801 | 16.11° C | 78% | 1016.6 hPa | 0 mm | - | - | - |
| 1788417000 | 15° C | 81% | 1016.6 hPa | 0 mm | - | - | - |
| 1788415200 | 15° C | 81% | 1017.6 hPa | 0 mm | - | - | - |
| 1788413400 | 14.44° C | 83% | 1017.6 hPa | 0 mm | - | - | - |
| 1788411600 | 13.89° C | 84% | 1017.6 hPa | 0 mm | - | - | - |
| 1788409801 | 13.89° C | 84% | 1016.6 hPa | 0 mm | - | - | - |
| 1788408000 | 13.89° C | 84% | 1016.6 hPa | 0 mm | - | - | - |
| 1788406200 | 13.89° C | 85% | 1017.6 hPa | 0 mm | - | - | - |
| 1788404400 | 13.89° C | 85% | 1017.6 hPa | 0 mm | - | - | - |
| 1788402600 | 13.89° C | 85% | 1017.6 hPa | 0 mm | - | - | - |
| 1788400800 | 13.89° C | 85% | 1017.6 hPa | 0 mm | - | - | - |
| 1788399000 | 13.33° C | 87% | 1017.6 hPa | 0 mm | - | - | - |
| 1788397200 | 13.33° C | 87% | 1017.6 hPa | 0 mm | - | - | - |
| 1788395400 | 12.78° C | 87% | 1017.6 hPa | 0 mm | - | - | - |
| 1788393600 | 13.33° C | 86% | 1017.6 hPa | 0 mm | - | - | - |
| 1788391800 | 13.33° C | 87% | 1017.6 hPa | 0 mm | - | - | - |
| 1788390000 | 13.33° C | 87% | 1017.6 hPa | 0 mm | - | - | - |
| 1788388200 | 13.33° C | 87% | 1017.6 hPa | 0 mm | - | - | - |
| 1788386400 | 13.33° C | 87% | 1017.6 hPa | 0 mm | - | - | - |
| 1788384600 | 13.89° C | 87% | 1017.6 hPa | 0 mm | - | - | - |
* Rain since midnight (hover to see other rain measurements)
** Current wind speed in m/s (hover to see current wind gust speed)